GFSNGP_250_rhum_144.txt.gz
RH
88 85 100 91 70 69 49 40 28 26 25 32 28 20 13 15 27 22 20 19 18 14 12 12 11 9 8 9 10 8 11 8 8 4 6 5 6 5 4 4 3 4 3 3
87 98 100 100 92 79 76 55 46 32 28 26 30 29 22 16 12 22 24 22 23 23 18 16 12 11 11 12 12 14 16 18 13 11 9 6 12 17 25 13 13 13 9 6
100 98 100 100 100 99 78 78 59 45 34 29 28 30 31 23 18 14 13 27 26 25 24 20 18 14 14 12 10 10 14 20 19 13 16 16 13 22 47 46 23 20 23 24
100 96 100 100 100 100 90 90 73 65 53 34 34 32 28 34 25 20 15 12 17 26 29 28 24 20 17 15 14 15 13 14 16 20 20 23 19 24 43 56 57 49 58 64
100 100 100 100 88 100 100 88 85 72 62 57 40 36 39 29 33 25 20 16 15 13 27 28 33 31 26 22 20 18 18 19 19 20 19 24 33 22 27 50 81 74 55 76
100 100 100 100 100 95 76 100 85 68 66 57 58 36 40 40 38 34 27 24 18 14 15 16 30 30 33 35 32 29 27 25 24 24 23 22 39 33 42 40 48 72 77 64
98 100 100 100 100 100 91 73 80 69 58 61 52 54 38 43 46 52 37 30 30 19 14 15 15 18 34 34 31 32 33 33 31 30 26 25 25 37 39 44 52 56 75 82
100 100 100 100 100 100 91 74 76 68 57 65 62 49 61 36 58 48 46 44 30 26 19 16 14 13 16 17 29 36 34 31 34 38 40 33 31 32 37 43 43 58 53 58
100 100 100 100 100 90 86 87 98 80 84 77 93 68 61 60 42 55 54 45 45 22 25 21 18 16 13 13 15 15 20 33 38 36 39 44 45 40 38 44 46 53 49 57
100 100 100 100 99 88 98 86 100 89 98 100 100 75 84 74 66 49 50 52 53 43 22 21 23 21 18 17 15 12 12 15 16 24 37 42 44 47 50 46 43 43 79 86
100 100 100 86 92 100 99 86 85 76 90 100 100 94 82 77 89 66 55 55 64 60 48 35 21 23 26 21 22 21 17 16 14 13 17 18 24 36 43 45 49 51 48 51
100 100 100 49 86 88 74 55 58 48 52 81 100 100 67 70 91 92 63 68 65 67 68 52 40 33 26 23 23 24 25 22 18 15 15 13 12 15 18 22 28 35 42 45
100 96 76 24 30 39 26 34 40 27 19 27 77 74 73 76 79 85 79 99 79 62 67 60 57 45 43 35 28 24 20 22 25 23 21 18 17 17 16 14 15 19 24 32
75 61 24 18 29 16 12 18 19 19 18 24 40 40 40 52 81 88 97 93 100 95 71 66 62 62 41 42 38 32 31 25 21 22 23 21 18 18 17 17 20 19 16 15
20 17 15 13 15 12 10 12 14 13 16 17 21 20 26 31 58 95 84 71 85 95 82 69 62 62 62 53 46 41 35 29 33 28 25 24 23 19 16 16 16 15 16 18
9 10 10 10 10 10 10 11 12 12 13 14 14 16 20 22 50 95 77 67 62 78 82 80 73 58 68 74 58 48 34 32 32 28 32 26 22 18 17 17 16 17 16 15
7 8 8 8 9 9 9 11 11 11 12 13 12 14 20 27 88 94 86 84 63 74 79 76 66 60 71 67 66 57 49 39 45 35 29 29 23 20 18 15 16 14 15 16
8 7 8 8 8 7 7 8 9 10 12 12 12 12 17 20 30 73 87 84 91 93 92 80 72 68 66 67 68 62 57 52 47 49 35 26 22 21 18 16 16 16 16 16
6 6 6 6 5 6 6 6 7 8 9 10 11 12 16 18 23 59 89 100 100 98 91 92 94 88 72 65 73 78 68 64 68 54 47 39 23 26 21 16 17 17 16 16
4 5 5 4 4 5 5 5 5 6 9 10 11 12 14 16 23 55 97 100 100 96 100 100 100 100 98 87 78 77 77 70 60 70 56 51 31 22 20 17 18 17 15 15
5 5 5 5 4 5 5 5 5 6 7 8 9 11 13 16 20 52 87 97 98 100 100 100 100 100 100 100 80 75 60 60 63 56 56 56 53 35 23 20 20 17 16 15
5 6 5 5 5 4 5 6 6 6 5 7 9 10 13 16 24 54 92 100 100 100 100 100 100 100 100 100 80 51 53 39 48 55 67 68 58 56 30 20 21 17 15 14
6 6 6 7 7 6 7 7 6 5 6 6 7 8 10 12 20 34 56 71 91 100 100 99 95 100 99 75 53 44 42 54 59 48 51 52 44 38 26 20 18 15 13 12
5 6 7 9 10 10 9 8 6 5 6 6 7 8 8 11 13 20 37 65 90 94 88 87 78 73 68 50 38 42 47 34 36 39 43 32 31 25 19 18 15 13 12 12
6 7 9 10 12 11 8 8 7 9 8 7 7 7 9 12 14 15 28 37 49 63 78 60 58 56 52 51 47 38 36 26 30 28 26 25 22 19 17 13 12 12 11 10
7 8 9 10 11 10 9 8 9 9 8 8 8 8 10 11 12 12 13 20 28 45 64 55 50 45 49 47 33 27 20 20 20 20 19 19 17 14 12 11 10 10 9 8
6 7 8 9 9 10 8 8 7 7 8 8 8 8 8 10 10 11 12 14 19 23 19 20 21 20 17 17 17 17 17 18 18 17 15 12 11 11 10 9 8 7 7 7

GFSNGP_250_rhum_147.txt.gz
RH
82 80 83 93 100 100 91 74 61 52 39 33 55 35 28 26 27 18 17 19 23 22 26 24 20 17 13 12 11 7 7 6 6 6 7 4 4 5 4 3 3 3 2 2
85 99 94 100 100 100 93 94 76 71 55 45 47 58 44 27 25 28 24 18 18 17 24 22 25 23 19 14 12 12 10 9 7 9 9 6 6 6 5 4 4 5 5 3
100 94 100 100 100 100 96 97 84 80 73 63 56 66 66 52 28 26 25 28 20 24 18 16 23 24 26 22 17 13 12 10 9 10 9 12 10 12 7 8 8 8 14 15
100 100 100 100 100 95 100 82 88 98 97 84 70 69 80 75 44 32 27 26 34 26 24 23 12 20 26 25 26 21 19 18 16 16 15 14 17 17 18 16 30 27 26 32
100 90 79 100 100 99 86 95 100 100 100 94 84 78 77 79 72 38 30 27 28 33 31 30 25 13 11 24 26 25 26 24 23 22 21 20 18 18 22 22 34 51 41 48
100 89 78 100 91 96 88 93 100 100 100 100 100 89 100 100 74 69 43 41 35 34 31 31 28 24 14 10 12 26 27 28 30 29 27 26 25 22 22 29 29 56 55 56
100 98 100 100 100 87 80 77 79 83 99 100 100 100 99 100 82 67 64 50 45 43 36 34 34 32 28 17 11 10 12 24 27 28 31 31 29 29 28 31 41 37 47 65
100 93 95 100 100 100 87 84 76 71 95 100 100 100 76 88 96 76 80 67 70 50 48 43 39 36 37 33 19 13 11 11 11 16 27 32 32 35 36 35 32 42 50 52
100 91 100 100 100 100 98 85 82 71 87 78 100 95 52 98 86 88 80 88 78 84 56 50 47 37 35 35 34 21 15 12 11 11 12 14 25 35 35 36 38 34 33 46
98 100 100 100 100 81 69 76 78 70 57 81 67 38 50 94 84 62 54 90 89 89 85 60 63 45 41 33 28 35 29 19 16 14 12 11 12 13 17 34 39 42 44 43
93 99 99 100 92 99 100 89 66 54 46 60 47 23 38 55 60 52 40 52 89 96 90 85 76 68 46 41 40 31 29 32 32 24 19 17 12 12 12 14 16 17 29 44
100 100 100 68 94 90 86 88 43 33 30 35 33 21 28 26 37 38 31 28 47 95 89 86 96 93 65 51 44 42 44 39 30 26 29 26 24 21 17 13 12 13 14 14
100 98 51 53 66 90 66 28 27 26 18 16 14 18 18 18 18 24 24 24 41 70 100 90 96 97 100 78 55 42 48 49 40 37 28 21 22 23 24 22 20 18 16 15
72 34 44 64 65 50 18 20 16 13 12 11 10 12 13 14 14 17 18 22 37 67 100 100 100 100 100 91 82 55 45 48 46 43 42 38 28 27 24 25 25 23 19 17
21 25 28 26 21 13 10 10 10 9 9 8 9 10 10 11 11 13 14 17 35 88 100 100 100 100 99 100 100 79 61 62 54 46 44 36 34 43 34 28 27 29 29 22
16 16 18 12 8 7 7 8 8 9 8 8 8 8 9 10 10 12 14 15 22 69 100 97 100 100 100 100 100 96 92 82 74 65 60 46 41 38 24 24 28 29 32 29
8 8 8 10 9 6 6 7 7 8 7 7 7 8 8 9 9 10 12 15 18 44 100 100 100 100 100 100 100 100 95 92 92 73 68 65 52 50 36 36 40 39 28 24
7 7 9 10 9 7 6 6 6 6 6 6 6 6 7 8 9 10 12 14 17 21 87 100 100 98 100 100 100 100 100 100 100 87 83 71 60 61 48 44 51 44 41 32
8 8 9 8 7 6 6 6 5 5 5 5 5 5 6 7 8 9 12 16 19 19 46 90 100 100 100 100 100 100 100 100 100 94 87 85 78 59 49 44 46 46 53 47
8 7 6 6 5 5 6 6 5 5 5 5 5 5 6 7 8 10 12 15 18 20 47 100 100 86 100 100 100 100 100 100 100 89 100 92 75 70 58 53 43 42 42 36
7 6 6 6 5 5 6 6 5 5 4 5 5 5 5 6 8 10 12 16 19 23 43 100 100 100 100 100 100 100 100 90 90 100 100 74 68 64 60 51 46 33 32 41
6 6 6 6 6 6 7 5 4 5 5 5 5 5 6 7 8 10 13 16 16 21 35 52 76 90 100 100 100 100 100 100 100 96 76 70 57 56 57 43 46 62 56 38
8 8 7 6 7 7 7 5 5 5 5 6 6 6 6 7 8 10 12 14 14 18 26 58 80 87 100 100 100 100 96 87 76 71 56 57 56 51 57 66 56 42 40 28
7 8 8 6 7 8 6 5 6 6 6 7 7 9 9 8 8 8 10 11 13 15 16 20 41 48 61 72 66 54 50 52 56 59 55 55 57 58 66 65 52 43 32 22
6 7 7 6 7 7 6 6 6 6 7 8 9 10 9 9 9 9 9 9 10 12 15 15 15 20 26 34 38 38 42 45 52 60 65 69 73 62 58 56 32 23 19 18
7 6 6 6 6 7 6 6 7 7 7 8 9 9 9 8 8 8 8 9 10 10 12 15 17 18 21 30 38 39 39 41 39 49 51 46 50 47 33 24 19 17 15 12
5 6 7 8 7 7 7 6 6 6 8 8 8 8 8 9 10 11 11 11 10 11 12 14 15 16 16 15 16 15 19 24 23 24 22 21 21 18 17 16 14 12 10 8

GFSNGP_250_rhum_150.txt.gz
RH
99 80 95 100 100 100 82 79 73 62 87 77 60 69 87 84 83 73 51 39 33 29 28 23 15 13 19 24 21 16 12 12 12 8 7 7 5 6 6 5 3 3 3 2
100 98 85 100 100 100 82 77 71 55 78 82 70 80 83 88 92 76 71 51 48 35 27 25 23 16 12 15 23 24 20 16 12 10 9 9 8 8 6 6 6 4 6 5
100 100 100 100 100 100 98 74 86 63 93 93 92 97 95 97 93 93 88 80 51 57 37 31 24 19 16 13 12 20 26 26 22 20 16 15 13 15 11 9 10 7 10 7
100 100 100 100 100 100 100 90 85 64 94 88 78 84 71 90 99 90 94 96 54 53 55 41 30 28 23 19 14 12 14 25 28 26 24 21 21 20 19 15 16 12 14 15
100 100 100 100 100 100 100 100 74 79 88 88 97 100 99 86 94 100 96 95 80 46 59 52 48 37 32 27 23 18 13 11 18 30 31 26 23 22 23 21 18 21 20 24
100 100 100 100 100 100 100 100 77 72 65 79 81 82 100 100 92 100 89 99 93 53 65 54 60 49 45 40 33 26 23 16 10 11 23 32 31 29 26 26 23 21 22 27
100 100 100 100 100 100 100 77 63 59 50 53 85 100 100 100 100 97 100 80 100 82 58 69 73 70 58 59 49 35 29 22 18 13 10 11 22 31 28 29 31 28 29 38
100 100 100 100 100 100 100 69 65 70 94 91 88 100 98 100 98 100 100 81 89 96 50 80 90 72 81 66 78 54 41 36 26 20 15 12 11 13 18 29 30 37 37 34
100 100 100 100 100 100 86 86 81 98 85 89 81 75 90 85 90 95 100 60 74 92 49 80 86 98 80 66 86 75 58 48 41 31 24 17 15 12 12 14 16 26 31 37
100 100 100 100 98 76 89 85 75 95 98 60 43 48 42 50 73 76 61 41 55 69 47 69 86 100 95 80 92 77 80 60 50 44 38 28 22 19 16 14 13 14 16 21
100 100 100 88 81 84 91 100 100 100 72 36 31 29 25 26 40 40 31 34 31 38 43 42 66 100 96 92 100 99 79 86 61 54 45 42 33 29 25 21 20 18 17 16
83 86 65 71 78 100 100 97 94 75 52 47 31 15 16 14 19 25 20 23 16 21 36 25 28 72 88 100 100 100 97 96 91 67 57 52 49 38 30 26 24 21 20 20
55 57 60 47 48 53 47 45 42 34 29 23 25 14 11 9 10 12 12 16 14 14 20 26 20 22 54 76 100 100 100 100 100 99 71 69 55 57 59 48 35 26 24 23
51 44 38 36 30 35 38 28 24 17 13 12 12 9 8 8 8 8 10 11 12 12 15 20 19 17 26 37 92 100 100 100 100 100 100 85 76 70 54 60 67 60 52 40
28 31 29 24 27 30 20 14 12 11 9 9 8 7 7 8 7 8 8 9 10 11 14 19 20 17 18 25 49 98 100 100 100 100 100 100 82 87 76 63 61 51 48 49
21 22 20 17 13 12 10 10 9 8 7 8 8 8 7 6 7 7 7 8 9 11 12 16 19 18 17 20 34 74 100 99 100 100 100 100 99 95 98 87 77 69 62 47
11 11 10 8 8 8 8 8 8 6 7 8 9 8 7 6 6 6 8 8 9 10 10 13 16 17 19 20 21 45 68 99 98 100 100 100 95 92 95 86 86 72 71 63
8 9 8 7 8 8 9 9 6 6 7 9 8 6 6 6 6 6 6 7 8 9 9 10 13 16 19 23 23 22 43 71 97 100 100 100 97 100 91 92 87 79 74 66
8 7 6 7 8 10 10 8 7 7 8 8 6 6 5 5 5 5 5 6 8 9 10 10 12 15 19 24 24 21 30 44 63 94 100 97 100 95 84 95 100 99 68 67
7 6 6 7 8 8 8 7 8 8 8 8 6 5 5 5 5 5 5 6 6 8 10 10 12 14 18 22 23 25 29 48 74 83 94 100 100 100 76 86 86 76 80 74
7 7 7 6 7 7 7 7 6 7 8 8 6 6 6 6 5 5 5 5 6 6 7 9 10 12 15 17 20 32 30 40 54 61 85 84 100 85 60 72 70 72 64 100
6 6 6 6 6 6 6 6 6 7 8 6 6 6 6 6 5 5 5 6 6 6 8 9 11 12 13 16 20 26 26 29 45 36 49 52 64 54 49 52 60 67 67 74
6 5 5 5 5 6 6 5 6 7 7 6 6 6 6 6 5 5 5 6 6 6 7 8 10 12 13 16 18 23 32 41 56 59 62 66 65 59 63 56 55 60 62 68
4 4 5 5 6 6 7 6 7 8 7 6 6 6 6 6 6 6 7 6 6 6 7 8 9 11 13 16 17 19 21 33 36 37 30 27 35 32 29 44 60 63 70 78
4 4 5 5 6 6 6 6 7 8 7 6 6 6 6 6 7 9 8 8 7 7 7 7 8 10 11 12 14 16 19 28 28 29 33 32 32 41 45 44 55 63 56 59
4 4 3 4 5 5 5 5 6 6 6 6 6 6 6 7 8 9 10 10 10 10 10 9 8 8 9 11 13 16 17 17 18 21 22 23 26 36 37 39 48 51 53 55
4 4 4 5 5 6 6 6 6 5 6 6 6 6 6 7 9 10 10 10 10 9 8 8 8 8 9 11 12 13 14 14 15 15 17 16 17 18 20 25 32 30 25 16

GFSNGP_250_rhum_153.txt.gz
RH
99 80 80 100 94 75 82 72 63 96 91 100 82 67 56 75 81 84 90 85 86 88 74 72 62 47 35 25 24 15 11 14 17 16 14 12 13 13 10 11 7 6 4 5
69 75 74 100 100 89 83 83 62 84 99 100 97 77 64 91 84 77 82 86 83 75 85 88 81 71 45 35 23 24 16 10 11 17 19 17 16 12 11 12 9 9 7 7
44 51 62 97 100 100 94 82 64 74 92 100 94 94 77 77 78 81 84 95 100 99 83 84 95 92 76 44 30 22 22 19 13 11 15 20 21 18 17 16 15 14 12 11
43 44 46 52 62 89 100 90 64 76 90 95 97 100 100 99 84 85 88 97 100 100 91 89 93 99 86 76 43 35 24 23 21 15 12 12 20 22 22 21 21 19 18 15
39 40 43 47 53 66 88 100 77 87 81 85 98 100 100 100 98 100 90 91 100 98 98 96 75 80 88 75 68 44 41 32 27 24 19 12 12 17 22 23 24 27 25 21
36 35 38 44 47 55 72 95 81 87 81 84 97 100 100 100 100 100 100 85 78 99 94 97 90 66 87 76 79 52 55 56 38 30 23 18 14 12 14 19 23 28 28 27
33 32 38 43 41 50 63 66 79 80 82 97 100 98 100 100 100 100 99 99 100 97 99 87 75 62 86 94 59 69 51 58 60 47 34 25 21 17 14 12 12 21 28 29
25 29 33 37 45 57 67 73 83 97 99 100 95 92 89 83 82 85 100 100 90 82 97 79 76 55 82 79 49 72 64 52 74 72 55 39 30 24 20 16 12 12 12 23
64 76 97 98 75 90 97 93 100 100 100 100 79 70 62 56 51 60 74 69 56 51 59 60 65 41 73 57 41 63 63 56 60 86 86 57 42 36 26 24 21 16 12 11
100 100 100 100 100 96 94 100 100 100 99 90 80 74 56 44 45 41 38 38 48 37 36 42 39 24 66 46 38 49 66 45 55 66 91 88 64 48 42 31 28 27 23 16
100 100 96 100 100 100 96 84 81 76 80 71 63 48 42 36 37 34 35 37 22 18 22 21 18 21 54 36 30 29 54 39 47 51 72 100 80 69 54 45 36 31 30 30
75 99 92 91 94 88 68 83 100 76 66 53 49 46 30 26 27 25 23 26 13 12 12 12 12 19 36 26 24 19 41 36 33 43 53 94 97 90 84 71 51 44 38 33
42 65 57 48 36 38 36 31 31 32 30 26 34 32 28 16 14 12 11 11 10 10 10 11 10 11 20 22 17 19 23 39 28 36 41 72 97 100 94 97 84 75 70 63
26 21 21 25 27 29 28 28 25 24 22 26 26 15 11 10 9 8 9 8 7 8 8 9 9 10 10 11 12 16 17 31 30 36 36 54 77 93 99 94 90 76 69 66
23 24 22 20 18 16 17 18 18 14 12 12 10 9 8 8 6 6 6 6 7 8 8 8 8 9 8 10 11 14 13 22 33 30 39 38 49 75 88 99 76 89 74 63
14 14 13 13 12 12 12 10 10 9 8 8 8 6 7 7 6 6 7 8 8 8 8 8 8 8 9 10 10 10 12 18 28 32 30 29 34 50 58 63 96 100 99 81
11 11 10 11 10 8 8 6 7 8 8 8 7 7 9 8 7 7 8 8 8 8 8 8 7 8 9 9 10 10 11 16 25 24 26 30 28 42 54 57 61 79 89 84
8 7 7 8 8 7 7 7 8 9 8 8 8 9 10 9 8 8 8 7 7 7 7 7 6 6 8 8 9 10 12 16 21 22 28 34 37 32 38 55 68 70 82 85
8 8 7 7 7 7 7 8 8 8 7 8 8 9 10 9 8 8 7 6 6 6 6 5 6 6 6 7 8 9 11 13 17 17 21 28 33 43 40 43 49 50 79 82
8 7 7 6 6 6 6 6 7 7 6 7 8 8 8 8 8 7 7 6 6 5 5 5 5 6 6 7 8 9 10 12 14 16 19 26 34 37 40 57 65 79 84 75
7 6 6 5 4 4 4 4 6 6 6 7 8 8 7 7 7 7 7 6 6 5 5 5 5 6 6 7 9 11 12 13 14 16 18 25 38 47 52 67 84 82 82 81
5 5 4 4 4 4 4 4 5 6 6 6 7 8 8 7 7 6 7 6 6 6 5 5 5 6 6 6 8 10 12 14 14 16 17 21 24 28 32 48 56 71 62 59
4 4 4 4 4 4 4 4 4 5 7 6 7 8 8 7 7 7 7 7 6 6 5 5 6 6 6 6 8 9 11 12 14 16 18 19 21 23 31 49 60 66 81 80
3 3 3 3 3 4 4 3 3 4 6 6 6 6 7 6 7 7 7 6 6 6 6 6 6 6 6 7 9 10 11 13 15 16 17 19 20 21 21 24 30 32 41 56
3 3 3 3 3 3 4 4 4 4 5 6 7 6 6 7 7 7 6 7 6 6 7 7 7 7 7 7 7 8 10 12 14 15 15 17 19 19 22 29 43 52 52 50
2 3 3 3 2 3 3 4 4 4 6 6 7 7 7 8 8 7 8 8 7 7 8 9 8 8 7 7 8 9 11 13 14 15 16 17 17 18 21 25 24 27 40 54
3 3 3 2 3 3 4 4 4 5 6 6 7 7 8 9 9 9 8 7 8 9 10 11 11 11 11 12 11 11 11 11 12 13 14 15 16 17 18 21 25 28 31 23

GFSNGP_250_rhum_156.txt.gz
RH
49 49 46 47 50 46 45 43 43 47 56 65 78 77 87 97 100 100 100 100 95 80 70 78 70 82 83 76 70 62 60 53 56 22 16 11 13 22 22 17 12 12 10 10
38 48 49 57 60 50 47 42 39 38 43 48 56 79 99 100 100 100 100 100 96 88 80 86 88 94 96 93 86 68 62 54 51 52 22 17 13 10 16 20 20 16 12 12
33 38 45 54 58 62 50 36 34 36 37 39 42 49 69 98 99 100 100 91 90 100 92 89 92 97 100 93 88 93 80 71 58 56 52 22 19 14 11 12 18 22 22 19
20 24 25 38 52 63 47 33 31 32 33 36 39 41 50 66 91 100 94 89 91 96 100 98 91 97 100 100 96 89 85 92 70 61 57 46 21 22 16 12 10 12 22 26
25 27 26 31 34 37 27 26 28 29 31 35 38 41 51 69 77 87 91 100 96 100 100 99 94 99 100 97 90 83 69 88 85 62 57 56 40 22 21 16 13 10 8 15
65 50 38 36 43 36 32 31 32 34 37 37 41 52 76 95 95 89 88 95 95 97 96 97 83 89 100 100 99 81 68 74 86 64 70 50 54 34 22 22 17 16 11 9
89 74 76 100 93 75 66 64 62 61 65 67 65 71 96 100 93 96 100 97 99 98 90 94 87 90 80 72 72 68 68 58 70 58 74 51 57 45 33 23 21 18 17 12
100 98 92 100 88 63 70 76 80 80 82 100 97 94 89 91 98 100 100 100 100 85 75 80 72 65 74 64 65 61 69 48 58 42 62 53 56 57 46 30 25 22 20 19
100 100 100 96 78 91 96 84 96 84 82 86 98 100 95 93 98 96 89 67 59 51 76 76 64 48 52 57 57 49 54 36 44 30 45 50 50 65 51 46 36 28 27 21
96 92 84 80 74 67 77 75 65 69 72 86 88 91 72 66 54 50 46 40 36 34 37 37 34 37 38 36 34 32 37 18 26 21 32 50 45 60 65 57 54 46 35 29
51 53 38 49 54 66 60 53 44 39 42 40 29 31 26 33 37 32 32 34 28 26 27 25 25 31 23 14 19 24 18 13 18 17 26 41 40 46 70 70 68 52 46 44
20 24 24 25 30 28 24 24 26 27 29 27 23 23 26 24 23 22 22 18 16 17 17 15 16 13 11 9 11 14 13 12 17 14 23 29 29 33 63 71 66 67 58 50
15 14 15 15 14 14 13 14 15 15 14 16 20 20 17 16 15 14 13 12 11 11 11 10 8 9 8 7 8 10 10 11 13 13 20 26 25 25 55 77 72 77 77 57
13 12 12 12 11 12 12 12 12 13 14 13 12 12 13 12 12 11 10 10 8 7 7 7 7 8 7 7 7 9 9 10 11 12 13 22 22 22 42 49 68 80 80 74
11 10 10 11 11 10 10 10 10 10 10 10 10 10 9 9 9 9 7 7 6 7 7 7 8 8 7 8 8 8 8 8 10 10 12 21 19 20 23 51 77 59 65 66
10 11 10 10 10 9 9 9 8 8 8 8 7 6 6 6 6 6 6 6 7 7 8 8 8 8 8 8 8 8 8 8 9 10 11 15 16 19 20 36 62 58 46 60
8 8 8 8 8 8 7 7 6 6 6 6 6 6 7 7 8 8 7 7 7 8 8 8 8 8 8 8 8 8 8 8 8 8 10 12 13 17 19 26 37 43 57 55
6 7 8 7 7 7 7 6 6 5 6 7 8 8 9 9 10 8 8 7 7 7 8 8 8 8 7 7 7 7 8 7 7 8 9 12 14 18 18 27 30 37 59 58
8 8 7 7 7 6 7 7 7 7 7 8 9 8 8 8 8 8 7 7 7 7 8 8 8 7 6 7 7 7 7 7 8 8 9 13 15 17 19 28 32 32 62 64
9 8 7 7 6 6 6 6 6 6 6 6 7 7 7 7 7 7 7 7 8 8 8 9 8 7 6 6 5 6 6 7 9 10 10 11 13 15 18 25 29 29 40 57
7 6 6 6 6 6 5 5 4 4 5 5 6 6 7 6 6 6 6 7 8 9 9 8 8 7 6 6 6 6 6 7 8 9 10 11 13 16 19 24 26 26 29 41
5 4 5 5 5 4 4 3 3 3 4 4 4 5 5 5 5 6 6 6 7 8 8 8 8 7 7 6 6 6 6 6 7 8 10 12 13 15 19 22 24 28 41 60
4 3 3 3 3 3 3 3 3 3 3 4 4 4 4 4 5 6 7 7 8 8 8 8 8 7 7 6 6 6 6 7 8 9 11 12 14 16 18 20 20 24 31 36
3 2 2 2 2 2 2 2 2 2 3 4 4 4 5 5 5 6 7 8 8 8 8 8 8 8 7 7 7 7 7 7 8 10 12 13 15 17 18 19 22 29 32 35
2 2 2 2 2 2 2 3 3 3 3 3 4 4 4 4 5 7 8 9 8 9 9 8 8 7 7 7 7 7 7 7 8 9 11 13 14 15 16 16 17 19 20 25
2 3 3 3 3 3 3 3 3 3 4 3 4 4 4 5 6 7 8 9 9 9 8 8 7 7 7 7 8 8 8 8 9 10 10 12 13 14 15 16 17 19 23 25
4 4 4 4 4 4 3 3 4 4 4 3 4 4 5 5 7 7 8 10 9 8 8 8 9 8 10 10 10 10 9 9 10 10 11 12 13 15 16 16 17 18 18 18